,,,PA_Meas_PMT16A,,PR_Meas_QMR101_102,,RH_Meas_QMH101,,SR_Meas_QMS101,,TA_Meas_QMH101,,GenWind,,GenWind,
date,time,status,PA,status,PR,status,RH,status,SR,status,TA,status,DirAvg,status,SpdAvg,
2012-03-15, 00:00:04,VALID,1002.48,VALID,0,VALID,94.888,VALID,0,VALID,24.2486,VALID,3,VALID,0,
2012-03-15, 00:01:04,VALID,1002.48,VALID,0,VALID,94.888,VALID,0,VALID,24.2486,VALID,3,VALID,0,
2012-03-15, 00:02:04,VALID,1002.46,VALID,0,VALID,94.8728,VALID,0,VALID,24.2078,VALID,3,VALID,0,
2012-03-15, 00:03:04,VALID,1002.48,VALID,0,VALID,94.888,VALID,0,VALID,24.2486,VALID,3,VALID,0,
2012-03-15, 00:04:04,VALID,1002.47,VALID,0,VALID,94.8956,VALID,0,VALID,24.2486,VALID,3,VALID,0,
2012-03-15, 00:05:04,VALID,1002.45,VALID,0,VALID,94.888,VALID,0,VALID,24.2486,VALID,3,VALID,0,
2012-03-15, 00:06:04,VALID,1002.42,VALID,0,VALID,94.8804,VALID,0,VALID,24.2273,VALID,3,VALID,0,
2012-03-15, 00:07:04,VALID,1002.43,VALID,0,VALID,94.8804,VALID,0,VALID,24.2291,VALID,3,VALID,0,
2012-03-15, 00:08:04,VALID,1002.4,VALID,0,VALID,94.8956,VALID,0,VALID,24.2273,VALID,3,VALID,0,
2012-03-15, 00:09:04,VALID,1002.38,VALID,0,VALID,94.888,VALID,0,VALID,24.2291,VALID,3,VALID,0,
2012-03-15, 00:10:04,VALID,1002.37,VALID,0,VALID,94.8804,VALID,0,VALID,24.2078,VALID,3,VALID,0,
2012-03-15, 00:11:04,VALID,1002.37,VALID,0,VALID,94.8804,VALID,0,VALID,24.2504,VALID,3,VALID,0,
2012-03-15, 00:12:04,VALID,1002.34,VALID,0,VALID,94.9185,VALID,0,VALID,24.2681,VALID,3,VALID,0,
2012-03-15, 00:13:04,VALID,1002.34,VALID,0,VALID,94.9109,VALID,0,VALID,24.2273,VALID,3,VALID,0,
2012-03-15, 00:14:04,VALID,1002.34,VALID,0,VALID,94.949,VALID,0,VALID,24.2681,VALID,3,VALID,0,
2012-03-15, 00:15:04,VALID,1002.32,VALID,0,VALID,94.9338,VALID,0,VALID,24.2681,VALID,3,VALID,0,
2012-03-15, 00:16:04,VALID,1002.31,VALID,0,VALID,94.9262,VALID,0,VALID,24.2681,VALID,3,VALID,0,
2012-03-15, 00:17:04,VALID,1002.31,VALID,0,VALID,94.9262,VALID,0,VALID,24.2681,VALID,3,VALID,0,
2012-03-15, 00:18:04,VALID,1002.28,VALID,0,VALID,94.9033,VALID,0,VALID,24.2681,VALID,3,VALID,0,
2012-03-15, 00:19:04,VALID,1002.27,VALID,0,VALID,94.9109,VALID,0,VALID,24.2681,VALID,3,VALID,0,
2012-03-15, 00:20:04,VALID,1002.29,VALID,0,VALID,94.9109,VALID,0,VALID,24.2681,VALID,3,VALID,0,
2012-03-15, 00:21:04,VALID,1002.28,VALID,0,VALID,94.9338,VALID,0,VALID,24.2681,VALID,3,VALID,0,
2012-03-15, 00:22:04,VALID,1002.26,VALID,0,VALID,94.9262,VALID,0,VALID,24.2468,VALID,3,VALID,0,
2012-03-15, 00:23:04,VALID,1002.27,VALID,0,VALID,94.9185,VALID,0,VALID,24.2681,VALID,3,VALID,0,
2012-03-15, 00:24:04,VALID,1002.28,VALID,0,VALID,94.9338,VALID,0,VALID,24.2681,VALID,3,VALID,0,
2012-03-15, 00:25:04,VALID,1002.31,VALID,0,VALID,94.949,VALID,0,VALID,24.2875,VALID,3,VALID,0,
2012-03-15, 00:26:04,VALID,1002.31,VALID,0,VALID,94.9719,VALID,0,VALID,24.3283,VALID,3,VALID,0,
2012-03-15, 00:27:04,VALID,1002.3,VALID,0,VALID,94.9567,VALID,0,VALID,24.307,VALID,3,VALID,0,
2012-03-15, 00:28:04,VALID,1002.3,VALID,0,VALID,94.9567,VALID,0,VALID,24.2662,VALID,3,VALID,0,
2012-03-15, 00:29:04,VALID,1002.3,VALID,0,VALID,94.9414,VALID,0,VALID,24.307,VALID,3,VALID,0,
2012-03-15, 00:30:04,VALID,1002.29,VALID,0,VALID,94.9338,VALID,0,VALID,24.307,VALID,3,VALID,0,
2012-03-15, 00:31:04,VALID,1002.26,VALID,0,VALID,94.9338,VALID,0,VALID,24.307,VALID,3,VALID,0,
2012-03-15, 00:32:04,VALID,1002.27,VALID,0,VALID,94.9643,VALID,0,VALID,24.3052,VALID,3,VALID,0,
2012-03-15, 00:33:04,VALID,1002.25,VALID,0,VALID,94.9796,VALID,0,VALID,24.3265,VALID,3,VALID,0,
2012-03-15, 00:34:04,VALID,1002.26,VALID,0,VALID,94.9948,VALID,0,VALID,24.3654,VALID,3,VALID,0,
2012-03-15, 00:35:04,VALID,1002.26,VALID,0,VALID,94.9796,VALID,0,VALID,24.3441,VALID,3,VALID,0,
2012-03-15, 00:36:04,VALID,1002.25,VALID,0,VALID,94.9796,VALID,0,VALID,24.3654,VALID,3,VALID,0,
2012-03-15, 00:37:04,VALID,1002.27,VALID,0,VALID,95.0024,VALID,0,VALID,24.3654,VALID,3,VALID,0,
2012-03-15, 00:38:04,VALID,1002.25,VALID,0,VALID,94.9719,VALID,0,VALID,24.3636,VALID,3,VALID,0,
2012-03-15, 00:39:04,VALID,1002.25,VALID,0,VALID,94.949,VALID,0,VALID,24.3636,VALID,3,VALID,0,
2012-03-15, 00:40:04,VALID,1002.24,VALID,0,VALID,94.9338,VALID,0,VALID,24.383,VALID,3,VALID,0,
2012-03-15, 00:41:04,VALID,1002.26,VALID,0,VALID,94.949,VALID,0,VALID,24.383,VALID,3,VALID,0,
2012-03-15, 00:42:04,VALID,1002.27,VALID,0,VALID,94.9643,VALID,0,VALID,24.4043,VALID,3,VALID,0,
2012-03-15, 00:43:04,VALID,1002.27,VALID,0,VALID,94.9567,VALID,0,VALID,24.4043,VALID,3,VALID,0,
2012-03-15, 00:44:04,VALID,1002.25,VALID,0,VALID,94.949,VALID,0,VALID,24.4043,VALID,3,VALID,0,
2012-03-15, 00:45:04,VALID,1002.29,VALID,0,VALID,94.9262,VALID,0,VALID,24.4043,VALID,3,VALID,0,
2012-03-15, 00:46:04,VALID,1002.27,VALID,0,VALID,94.9185,VALID,0,VALID,24.4043,VALID,3,VALID,0,
2012-03-15, 00:47:04,VALID,1002.26,VALID,0,VALID,94.9185,VALID,0,VALID,24.383,VALID,3,VALID,0,
2012-03-15, 00:48:04,VALID,1002.25,VALID,0,VALID,94.9414,VALID,0,VALID,24.4025,VALID,3,VALID,0,
2012-03-15, 00:49:04,VALID,1002.23,VALID,0,VALID,94.9567,VALID,0,VALID,24.4025,VALID,3,VALID,0,
2012-03-15, 00:50:04,VALID,1002.18,VALID,0,VALID,94.9719,VALID,0,VALID,24.4238,VALID,3,VALID,0,
2012-03-15, 00:51:04,VALID,1002.2,VALID,0,VALID,94.9643,VALID,0,VALID,24.4433,VALID,3,VALID,0,
2012-03-15, 00:52:04,VALID,1002.16,VALID,0,VALID,94.9796,VALID,0,VALID,24.4433,VALID,3,VALID,0,
2012-03-15, 00:53:04,VALID,1002.17,VALID,0,VALID,94.949,VALID,0,VALID,24.4628,VALID,3,VALID,0,
2012-03-15, 00:54:04,VALID,1002.13,VALID,0,VALID,94.9643,VALID,0,VALID,24.422,VALID,3,VALID,0,
2012-03-15, 00:55:04,VALID,1002.14,VALID,0,VALID,94.9643,VALID,0,VALID,24.4433,VALID,3,VALID,0,
2012-03-15, 00:56:04,VALID,1002.12,VALID,0,VALID,94.9796,VALID,0,VALID,24.4628,VALID,3,VALID,0,
2012-03-15, 00:57:04,VALID,1002.15,VALID,0,VALID,94.9872,VALID,0,VALID,24.4609,VALID,3,VALID,0,
2012-03-15, 00:58:04,VALID,1002.18,VALID,0,VALID,94.9872,VALID,0,VALID,24.4822,VALID,16,VALID,0.557813,
2012-03-15, 00:59:04,VALID,1002.15,VALID,0,VALID,94.9643,VALID,0,VALID,24.4822,VALID,16,VALID,0.530469,
2012-03-15, 01:00:04,VALID,1002.12,VALID,0,VALID,94.9948,VALID,0,VALID,24.4822,VALID,16,VALID,0.241016,
2012-03-15, 01:01:04,VALID,1002.1,VALID,0,VALID,94.9796,VALID,0,VALID,24.4822,VALID,16,VALID,0.0386719,
2012-03-15, 01:02:04,VALID,1002.06,VALID,0,VALID,95.0101,VALID,0,VALID,24.5017,VALID,16,VALID,0.2,
2012-03-15, 01:03:04,VALID,1002.07,VALID,0,VALID,94.9796,VALID,0,VALID,24.5212,VALID,16,VALID,0,
2012-03-15, 01:04:04,VALID,1002.08,VALID,0,VALID,94.9872,VALID,0,VALID,24.5406,VALID,16,VALID,0,
2012-03-15, 01:05:04,VALID,1002.05,VALID,0,VALID,94.9872,VALID,0,VALID,24.5601,VALID,16,VALID,0,
2012-03-15, 01:06:04,VALID,1002.05,VALID,0,VALID,94.9719,VALID,0,VALID,24.5388,VALID,16,VALID,0,
2012-03-15, 01:07:04,VALID,1002.06,VALID,0,VALID,94.9567,VALID,0,VALID,24.5601,VALID,16,VALID,0,
2012-03-15, 01:08:04,VALID,1002.01,VALID,0,VALID,94.949,VALID,0,VALID,24.5193,VALID,16,VALID,0,
2012-03-15, 01:09:04,VALID,1002,VALID,0,VALID,94.9262,VALID,0,VALID,24.5406,VALID,16,VALID,0,
2012-03-15, 01:10:04,VALID,1001.99,VALID,0,VALID,94.9262,VALID,0,VALID,24.5406,VALID,16,VALID,0,
2012-03-15, 01:11:04,VALID,1001.95,VALID,0,VALID,94.9109,VALID,0,VALID,24.5406,VALID,16,VALID,0,
2012-03-15, 01:12:04,VALID,1001.93,VALID,0,VALID,94.9185,VALID,0,VALID,24.5193,VALID,16,VALID,0,
2012-03-15, 01:13:04,VALID,1001.89,VALID,0,VALID,94.9185,VALID,0,VALID,24.5406,VALID,16,VALID,0,
2012-03-15, 01:14:04,VALID,1001.86,VALID,0,VALID,94.9185,VALID,0,VALID,24.5601,VALID,16,VALID,0.344531,
2012-03-15, 01:15:04,VALID,1001.85,VALID,0,VALID,94.9109,VALID,0,VALID,24.5193,VALID,16,VALID,0.401563,
2012-03-15, 01:16:04,VALID,1001.83,VALID,0,VALID,94.9109,VALID,0,VALID,24.5406,VALID,16,VALID,0.367188,
2012-03-15, 01:17:04,VALID,1001.84,VALID,0,VALID,94.9185,VALID,0,VALID,24.5193,VALID,16,VALID,0.115625,
2012-03-15, 01:18:04,VALID,1001.82,VALID,0,VALID,94.9262,VALID,0,VALID,24.5406,VALID,16,VALID,0.186719,
2012-03-15, 01:19:04,VALID,1001.84,VALID,0,VALID,94.9414,VALID,0,VALID,24.5582,VALID,16,VALID,0.455078,
2012-03-15, 01:20:04,VALID,1001.84,VALID,0,VALID,94.9414,VALID,0,VALID,24.5796,VALID,18,VALID,0.376172,
2012-03-15, 01:21:04,VALID,1001.83,VALID,0,VALID,94.949,VALID,0,VALID,24.5388,VALID,18,VALID,0.452344,
2012-03-15, 01:22:04,VALID,1001.82,VALID,0,VALID,94.9338,VALID,0,VALID,24.5796,VALID,18,VALID,0.232812,
2012-03-15, 01:23:04,VALID,1001.8,VALID,0,VALID,94.949,VALID,0,VALID,24.5796,VALID,18,VALID,0.233594,
2012-03-15, 01:24:04,VALID,1001.83,VALID,0,VALID,94.949,VALID,0,VALID,24.5777,VALID,18,VALID,0.336719,
2012-03-15, 01:25:04,VALID,1001.81,VALID,0,VALID,94.949,VALID,0,VALID,24.599,VALID,18,VALID,0.354688,
2012-03-15, 01:26:04,VALID,1001.83,VALID,0,VALID,94.9414,VALID,0,VALID,24.5777,VALID,18,VALID,0.328125,
2012-03-15, 01:27:04,VALID,1001.84,VALID,0,VALID,94.9567,VALID,0,VALID,24.6185,VALID,18,VALID,0,
2012-03-15, 01:28:04,VALID,1001.85,VALID,0,VALID,94.9567,VALID,0,VALID,24.638,VALID,18,VALID,0,
2012-03-15, 01:29:04,VALID,1001.83,VALID,0,VALID,94.9262,VALID,0,VALID,24.6185,VALID,18,VALID,0,
2012-03-15, 01:30:04,VALID,1001.81,VALID,0,VALID,94.949,VALID,0,VALID,24.638,VALID,18,VALID,0,
2012-03-15, 01:31:04,VALID,1001.8,VALID,0,VALID,94.9338,VALID,0,VALID,24.6185,VALID,18,VALID,0,
2012-03-15, 01:32:04,VALID,1001.79,VALID,0,VALID,94.9033,VALID,0,VALID,24.5777,VALID,18,VALID,0,
2012-03-15, 01:33:04,VALID,1001.77,VALID,0,VALID,94.8956,VALID,0,VALID,24.5582,VALID,18,VALID,0,
2012-03-15, 01:34:04,VALID,1001.77,VALID,0,VALID,94.8956,VALID,0,VALID,24.5582,VALID,18,VALID,0,
2012-03-15, 01:35:04,VALID,1001.72,VALID,0,VALID,94.8804,VALID,0,VALID,24.5601,VALID,18,VALID,0,
2012-03-15, 01:36:04,VALID,1001.69,VALID,0,VALID,94.8804,VALID,0,VALID,24.5388,VALID,18,VALID,0,
2012-03-15, 01:37:04,VALID,1001.68,VALID,0,VALID,94.8956,VALID,0,VALID,24.5601,VALID,18,VALID,0,
2012-03-15, 01:38:04,VALID,1001.64,VALID,0.5,VALID,94.9033,VALID,0,VALID,24.5601,VALID,18,VALID,0,
2012-03-15, 01:39:04,VALID,1001.64,VALID,0,VALID,94.9033,VALID,0,VALID,24.5796,VALID,18,VALID,0,
2012-03-15, 01:40:04,VALID,1001.62,VALID,0,VALID,94.9109,VALID,0,VALID,24.5777,VALID,18,VALID,0,
2012-03-15, 01:41:04,VALID,1001.59,VALID,0,VALID,94.9033,VALID,0,VALID,24.5777,VALID,18,VALID,0,
2012-03-15, 01:42:04,VALID,1001.55,VALID,0,VALID,94.9109,VALID,0,VALID,24.599,VALID,18,VALID,0,
2012-03-15, 01:43:04,VALID,1001.52,VALID,0,VALID,94.9262,VALID,0,VALID,24.5777,VALID,18,VALID,0,
2012-03-15, 01:44:04,VALID,1001.51,VALID,0,VALID,94.9262,VALID,0,VALID,24.5777,VALID,18,VALID,0,
2012-03-15, 01:45:04,VALID,1001.51,VALID,0,VALID,94.8956,VALID,0,VALID,24.5777,VALID,18,VALID,0,
2012-03-15, 01:46:04,VALID,1001.5,VALID,0,VALID,94.8956,VALID,0,VALID,24.5388,VALID,18,VALID,0,
2012-03-15, 01:47:04,VALID,1001.53,VALID,0,VALID,94.9109,VALID,0,VALID,24.5796,VALID,18,VALID,0,
2012-03-15, 01:48:04,VALID,1001.51,VALID,0,VALID,94.9185,VALID,0,VALID,24.5796,VALID,18,VALID,0,
2012-03-15, 01:49:04,VALID,1001.5,VALID,0,VALID,94.9033,VALID,0,VALID,24.5388,VALID,18,VALID,0,
2012-03-15, 01:50:04,VALID,1001.49,VALID,0,VALID,94.9033,VALID,0.0815089,VALID,24.5601,VALID,18,VALID,0,
2012-03-15, 01:51:04,VALID,1001.49,VALID,0,VALID,94.8728,VALID,0,VALID,24.5406,VALID,18,VALID,0,
2012-03-15, 01:52:04,VALID,1001.46,VALID,0,VALID,94.888,VALID,0,VALID,24.4998,VALID,18,VALID,0,
2012-03-15, 01:53:04,VALID,1001.46,VALID,0,VALID,94.8956,VALID,0,VALID,24.5212,VALID,18,VALID,0,
2012-03-15, 01:54:04,VALID,1001.44,VALID,0,VALID,94.9109,VALID,0,VALID,24.4998,VALID,18,VALID,0,
2012-03-15, 01:55:04,VALID,1001.42,VALID,0,VALID,94.8956,VALID,0.0815089,VALID,24.5193,VALID,18,VALID,0,
2012-03-15, 01:56:04,VALID,1001.4,VALID,0,VALID,94.9185,VALID,0,VALID,24.4998,VALID,18,VALID,0,
2012-03-15, 01:57:04,VALID,1001.39,VALID,0,VALID,94.9185,VALID,0,VALID,24.4998,VALID,18,VALID,0,
2012-03-15, 01:58:04,VALID,1001.39,VALID,0,VALID,94.9262,VALID,0,VALID,24.5406,VALID,18,VALID,0,
2012-03-15, 01:59:04,VALID,1001.39,VALID,0,VALID,94.9185,VALID,0,VALID,24.4998,VALID,18,VALID,0,
2012-03-15, 02:00:04,VALID,1001.38,VALID,0,VALID,94.9414,VALID,0,VALID,24.5212,VALID,18,VALID,0,
2012-03-15, 02:01:04,VALID,1001.39,VALID,0,VALID,94.9338,VALID,0.0815089,VALID,24.4998,VALID,18,VALID,0,
2012-03-15, 02:02:04,VALID,1001.41,VALID,0,VALID,94.9262,VALID,0,VALID,24.5212,VALID,18,VALID,0,
2012-03-15, 02:03:04,VALID,1001.34,VALID,0,VALID,94.9414,VALID,0,VALID,24.5212,VALID,18,VALID,0,
2012-03-15, 02:04:04,VALID,1001.37,VALID,0,VALID,94.949,VALID,0,VALID,24.4804,VALID,18,VALID,0,
2012-03-15, 02:05:04,VALID,1001.35,VALID,0,VALID,94.9643,VALID,0,VALID,24.4804,VALID,18,VALID,0,
2012-03-15, 02:06:04,VALID,1001.37,VALID,0,VALID,94.9567,VALID,0,VALID,24.5212,VALID,18,VALID,0,
2012-03-15, 02:07:04,VALID,1001.37,VALID,0,VALID,94.9567,VALID,0,VALID,24.5406,VALID,18,VALID,0,
2012-03-15, 02:08:04,VALID,1001.36,VALID,0,VALID,94.9796,VALID,0,VALID,24.5406,VALID,34,VALID,0,
2012-03-15, 02:09:04,VALID,1001.33,VALID,0,VALID,95.0024,VALID,0,VALID,24.5388,VALID,34,VALID,0,
2012-03-15, 02:10:04,VALID,1001.3,VALID,0,VALID,94.9872,VALID,0,VALID,24.5193,VALID,57,VALID,0,
2012-03-15, 02:11:04,VALID,1001.26,VALID,0,VALID,94.9796,VALID,0,VALID,24.5388,VALID,57,VALID,0,
2012-03-15, 02:12:04,VALID,1001.31,VALID,0.5,VALID,94.9796,VALID,0,VALID,24.5601,VALID,57,VALID,0,
2012-03-15, 02:13:04,VALID,1001.26,VALID,0,VALID,94.9796,VALID,0,VALID,24.5601,VALID,58,VALID,0,
2012-03-15, 02:14:04,VALID,1001.23,VALID,0,VALID,94.9872,VALID,0,VALID,24.5796,VALID,58,VALID,0,
2012-03-15, 02:15:04,VALID,1001.19,VALID,0.5,VALID,94.9948,VALID,0,VALID,24.5796,VALID,58,VALID,0,
2012-03-15, 02:16:04,VALID,1001.19,VALID,0,VALID,94.9719,VALID,0,VALID,24.5388,VALID,57,VALID,0,
2012-03-15, 02:17:04,VALID,1001.17,VALID,0.5,VALID,94.9948,VALID,0,VALID,24.5582,VALID,57,VALID,0,
2012-03-15, 02:18:04,VALID,1001.19,VALID,0,VALID,94.9872,VALID,0,VALID,24.5582,VALID,57,VALID,0,
2012-03-15, 02:19:04,VALID,1001.17,VALID,0.5,VALID,95.0406,VALID,0.0815089,VALID,24.5972,VALID,57,VALID,0,
2012-03-15, 02:20:04,VALID,1001.15,VALID,0,VALID,94.9948,VALID,0,VALID,24.6185,VALID,57,VALID,0,
2012-03-15, 02:21:04,VALID,1001.17,VALID,0.5,VALID,95.033,VALID,0.0815089,VALID,24.5972,VALID,56,VALID,0,
2012-03-15, 02:22:04,VALID,1001.17,VALID,0,VALID,95.0177,VALID,0,VALID,24.5972,VALID,54,VALID,0,
2012-03-15, 02:23:04,VALID,1001.13,VALID,0,VALID,95.0177,VALID,0,VALID,24.5972,VALID,33,VALID,0,
2012-03-15, 02:24:04,VALID,1001.14,VALID,0.5,VALID,95.0101,VALID,0,VALID,24.599,VALID,302,VALID,0.719531,
2012-03-15, 02:25:04,VALID,1001.11,VALID,0,VALID,95.0253,VALID,0,VALID,24.6185,VALID,242,VALID,1.11133,
2012-03-15, 02:26:04,VALID,1001.12,VALID,0,VALID,94.9796,VALID,0,VALID,24.6185,VALID,233,VALID,0.763672,
2012-03-15, 02:27:04,VALID,1001.09,VALID,0,VALID,94.9948,VALID,0,VALID,24.6185,VALID,8,VALID,0.596875,
2012-03-15, 02:28:04,VALID,1001.12,VALID,0,VALID,95.0101,VALID,0,VALID,24.6166,VALID,2,VALID,0,
2012-03-15, 02:29:04,VALID,1001.12,VALID,0,VALID,94.9719,VALID,0,VALID,24.6185,VALID,50,VALID,0.0609375,
2012-03-15, 02:30:04,VALID,1001.12,VALID,0,VALID,94.949,VALID,0,VALID,24.5972,VALID,31,VALID,0.421094,
2012-03-15, 02:31:04,VALID,1001.1,VALID,0,VALID,94.9567,VALID,0,VALID,24.5972,VALID,31,VALID,0.200781,
2012-03-15, 02:32:04,VALID,1001.08,VALID,0,VALID,94.9414,VALID,0,VALID,24.599,VALID,31,VALID,0.249609,
2012-03-15, 02:33:04,VALID,1001.09,VALID,0.5,VALID,94.9262,VALID,0.0815089,VALID,24.5777,VALID,29,VALID,0.266016,
2012-03-15, 02:34:04,VALID,1001.04,VALID,0,VALID,94.9338,VALID,0,VALID,24.5777,VALID,29,VALID,0,
2012-03-15, 02:35:04,VALID,1001.05,VALID,0,VALID,94.949,VALID,0,VALID,24.599,VALID,29,VALID,0,
2012-03-15, 02:36:04,VALID,1001.04,VALID,0,VALID,94.9719,VALID,0.0815089,VALID,24.6185,VALID,29,VALID,0,
2012-03-15, 02:37:04,VALID,1001.1,VALID,0,VALID,94.9796,VALID,0,VALID,24.6185,VALID,29,VALID,0,
2012-03-15, 02:38:04,VALID,1001.1,VALID,0,VALID,94.9643,VALID,0,VALID,24.5777,VALID,29,VALID,0,
2012-03-15, 02:39:04,VALID,1001.07,VALID,0,VALID,94.9719,VALID,0,VALID,24.599,VALID,29,VALID,0,
2012-03-15, 02:40:04,VALID,1001.05,VALID,0,VALID,94.9643,VALID,0,VALID,24.5777,VALID,29,VALID,0,
2012-03-15, 02:41:04,VALID,1001.02,VALID,0,VALID,94.9872,VALID,0,VALID,24.5777,VALID,29,VALID,0,
2012-03-15, 02:42:04,VALID,1001.02,VALID,0,VALID,94.9948,VALID,0,VALID,24.5777,VALID,29,VALID,0,
2012-03-15, 02:43:04,VALID,1001.01,VALID,0,VALID,95.0024,VALID,0,VALID,24.599,VALID,29,VALID,0,
2012-03-15, 02:44:04,VALID,1001.02,VALID,0,VALID,95.0024,VALID,0,VALID,24.599,VALID,29,VALID,0,
2012-03-15, 02:45:04,VALID,1001,VALID,0,VALID,94.9872,VALID,0,VALID,24.5601,VALID,29,VALID,0,
2012-03-15, 02:46:04,VALID,1001,VALID,0.5,VALID,94.9719,VALID,0.0815089,VALID,24.5796,VALID,29,VALID,0,
2012-03-15, 02:47:04,VALID,1001.03,VALID,0,VALID,95.0101,VALID,0,VALID,24.5582,VALID,29,VALID,0,
2012-03-15, 02:48:04,VALID,1001.01,VALID,0,VALID,94.9872,VALID,0.0815089,VALID,24.5388,VALID,29,VALID,0,
2012-03-15, 02:49:04,VALID,1001.03,VALID,0,VALID,95.0177,VALID,0,VALID,24.5796,VALID,29,VALID,0,
2012-03-15, 02:50:04,VALID,1001.06,VALID,0,VALID,95.0253,VALID,0,VALID,24.5388,VALID,350,VALID,0.361719,
2012-03-15, 02:51:04,VALID,1001.03,VALID,0,VALID,95.0101,VALID,0,VALID,24.5388,VALID,4,VALID,0.394922,
2012-03-15, 02:52:04,VALID,1001.03,VALID,0,VALID,95.0101,VALID,0,VALID,24.5406,VALID,349,VALID,0.564453,
2012-03-15, 02:53:04,VALID,1001.06,VALID,0,VALID,94.9719,VALID,0,VALID,24.5193,VALID,352,VALID,0.703125,
2012-03-15, 02:54:04,VALID,1001.08,VALID,0,VALID,95.0024,VALID,0,VALID,24.5406,VALID,357,VALID,0.734375,
2012-03-15, 02:55:04,VALID,1001.03,VALID,0,VALID,95.0101,VALID,0,VALID,24.5212,VALID,349,VALID,0.629687,
2012-03-15, 02:56:04,VALID,1001.01,VALID,0,VALID,95.0177,VALID,0,VALID,24.5193,VALID,349,VALID,0.0304688,
2012-03-15, 02:57:04,VALID,1000.99,VALID,0,VALID,95.033,VALID,0,VALID,24.5406,VALID,349,VALID,0.0769531,
2012-03-15, 02:58:04,VALID,1000.99,VALID,0,VALID,95.0482,VALID,0,VALID,24.5601,VALID,347,VALID,0.685547,
2012-03-15, 02:59:04,VALID,1001,VALID,0,VALID,95.0482,VALID,0,VALID,24.5193,VALID,353,VALID,0.650781,
2012-03-15, 03:00:04,VALID,1001.02,VALID,0,VALID,95.0177,VALID,0,VALID,24.5601,VALID,345,VALID,1.01563,
2012-03-15, 03:01:04,VALID,1001.03,VALID,0,VALID,95.0101,VALID,0,VALID,24.5601,VALID,341,VALID,0.491406,
2012-03-15, 03:02:04,VALID,1001.04,VALID,0,VALID,95.0101,VALID,0,VALID,24.5406,VALID,346,VALID,0.767187,
2012-03-15, 03:03:04,VALID,1001.07,VALID,0,VALID,94.9948,VALID,0,VALID,24.5601,VALID,353,VALID,0.680078,
2012-03-15, 03:04:04,VALID,1001.05,VALID,0,VALID,94.9872,VALID,0,VALID,24.5406,VALID,336,VALID,0.310937,
2012-03-15, 03:05:04,VALID,1001.09,VALID,0,VALID,95.0101,VALID,0,VALID,24.5601,VALID,2,VALID,0.225,
2012-03-15, 03:06:04,VALID,1001.08,VALID,0,VALID,94.9948,VALID,0,VALID,24.5601,VALID,349,VALID,0.482031,
2012-03-15, 03:07:04,VALID,1001.03,VALID,0,VALID,94.9719,VALID,0,VALID,24.5406,VALID,356,VALID,0.725781,
2012-03-15, 03:08:04,VALID,1001.05,VALID,0.5,VALID,94.9872,VALID,0,VALID,24.5406,VALID,356,VALID,0.747266,
2012-03-15, 03:09:04,VALID,1000.99,VALID,0,VALID,94.9719,VALID,0,VALID,24.5601,VALID,344,VALID,0.210938,
2012-03-15, 03:10:04,VALID,1000.97,VALID,0,VALID,95.0024,VALID,0,VALID,24.5601,VALID,288,VALID,0.134375,
2012-03-15, 03:11:04,VALID,1000.93,VALID,0,VALID,94.9872,VALID,0,VALID,24.5796,VALID,289,VALID,0.180078,
2012-03-15, 03:12:04,VALID,1000.95,VALID,0,VALID,94.9872,VALID,0,VALID,24.5796,VALID,286,VALID,0,
2012-03-15, 03:13:04,VALID,1000.96,VALID,0,VALID,94.9796,VALID,0,VALID,24.5601,VALID,341,VALID,0.594922,
2012-03-15, 03:14:04,VALID,1000.96,VALID,0,VALID,94.9567,VALID,0,VALID,24.5193,VALID,348,VALID,0.462109,
2012-03-15, 03:15:04,VALID,1000.96,VALID,0,VALID,94.9719,VALID,0,VALID,24.5406,VALID,351,VALID,0.00820312,
2012-03-15, 03:16:04,VALID,1000.94,VALID,0,VALID,94.9567,VALID,0,VALID,24.5212,VALID,351,VALID,0.128516,
2012-03-15, 03:17:04,VALID,1000.92,VALID,0,VALID,94.9262,VALID,0,VALID,24.4998,VALID,351,VALID,0.0289063,
2012-03-15, 03:18:04,VALID,1000.94,VALID,0,VALID,94.9338,VALID,0,VALID,24.5212,VALID,351,VALID,0,
2012-03-15, 03:19:04,VALID,1000.96,VALID,0,VALID,94.9185,VALID,0,VALID,24.5017,VALID,351,VALID,0.650781,
2012-03-15, 03:20:04,VALID,1000.98,VALID,0,VALID,94.9185,VALID,0,VALID,24.4822,VALID,344,VALID,0.579297,
2012-03-15, 03:21:04,VALID,1001,VALID,0,VALID,94.8804,VALID,0,VALID,24.4414,VALID,348,VALID,0.460938,
2012-03-15, 03:22:04,VALID,1001,VALID,0,VALID,94.8956,VALID,0,VALID,24.4628,VALID,341,VALID,0.225781,
2012-03-15, 03:23:04,VALID,1001,VALID,0,VALID,94.9185,VALID,0,VALID,24.4628,VALID,349,VALID,0.840625,
2012-03-15, 03:24:04,VALID,1001.03,VALID,0,VALID,94.9033,VALID,0,VALID,24.4433,VALID,351,VALID,0.333594,
2012-03-15, 03:25:04,VALID,1001.02,VALID,0,VALID,94.8956,VALID,0,VALID,24.4646,VALID,351,VALID,0.323047,
2012-03-15, 03:26:04,VALID,1001.03,VALID,0,VALID,94.9185,VALID,0,VALID,24.4433,VALID,351,VALID,0.103906,
2012-03-15, 03:27:04,VALID,1001.01,VALID,0,VALID,94.9033,VALID,0,VALID,24.4451,VALID,351,VALID,0.271094,
2012-03-15, 03:28:04,VALID,1000.96,VALID,0,VALID,94.949,VALID,0,VALID,24.4433,VALID,348,VALID,0,
2012-03-15, 03:29:04,VALID,1000.94,VALID,0,VALID,94.949,VALID,0,VALID,24.422,VALID,348,VALID,0,
2012-03-15, 03:30:04,VALID,1000.92,VALID,0,VALID,94.9643,VALID,0,VALID,24.4433,VALID,348,VALID,0,
2012-03-15, 03:31:04,VALID,1000.92,VALID,0,VALID,94.949,VALID,0,VALID,24.4433,VALID,348,VALID,0,
2012-03-15, 03:32:04,VALID,1000.93,VALID,0,VALID,94.9338,VALID,0,VALID,24.4433,VALID,348,VALID,0,
2012-03-15, 03:33:04,VALID,1000.94,VALID,0,VALID,94.9643,VALID,0,VALID,24.4238,VALID,349,VALID,0,
2012-03-15, 03:34:04,VALID,1000.94,VALID,0,VALID,94.9567,VALID,0,VALID,24.4238,VALID,351,VALID,0,
2012-03-15, 03:35:04,VALID,1000.93,VALID,0,VALID,94.949,VALID,0,VALID,24.4238,VALID,356,VALID,0.635156,
2012-03-15, 03:36:04,VALID,1000.97,VALID,0,VALID,94.9567,VALID,0,VALID,24.4238,VALID,355,VALID,0.584375,
2012-03-15, 03:37:04,VALID,1000.93,VALID,0,VALID,94.949,VALID,0,VALID,24.4043,VALID,350,VALID,1.13984,
2012-03-15, 03:38:04,VALID,1000.95,VALID,0,VALID,94.9414,VALID,0,VALID,24.4025,VALID,338,VALID,0.932813,
2012-03-15, 03:39:04,VALID,1000.99,VALID,0,VALID,94.9414,VALID,0,VALID,24.3849,VALID,347,VALID,1.0332,
2012-03-15, 03:40:04,VALID,1000.98,VALID,0,VALID,94.9414,VALID,0,VALID,24.4043,VALID,339,VALID,0.896875,
2012-03-15, 03:41:04,VALID,1001,VALID,0,VALID,94.949,VALID,0,VALID,24.3849,VALID,352,VALID,1.03477,
2012-03-15, 03:42:04,VALID,1001.01,VALID,0,VALID,94.9262,VALID,0,VALID,24.3849,VALID,348,VALID,1.20664,
2012-03-15, 03:43:04,VALID,1001,VALID,0,VALID,94.9567,VALID,0,VALID,24.3849,VALID,347,VALID,1.14648,
2012-03-15, 03:44:04,VALID,1000.99,VALID,0,VALID,94.949,VALID,0,VALID,24.3654,VALID,339,VALID,1.09727,
2012-03-15, 03:45:04,VALID,1000.98,VALID,0,VALID,94.9338,VALID,0,VALID,24.3654,VALID,351,VALID,1.10352,
2012-03-15, 03:46:05,VALID,1000.99,VALID,0,VALID,94.9414,VALID,0,VALID,24.3654,VALID,351,VALID,1.225,
2012-03-15, 03:47:05,VALID,1000.98,VALID,0,VALID,94.9338,VALID,0,VALID,24.3654,VALID,317,VALID,0.638672,
2012-03-15, 03:48:05,VALID,1000.99,VALID,0,VALID,94.9185,VALID,0,VALID,24.3654,VALID,350,VALID,1.16328,
2012-03-15, 03:49:05,VALID,1001,VALID,0,VALID,94.888,VALID,0,VALID,24.3654,VALID,353,VALID,1.09258,
2012-03-15, 03:50:05,VALID,1000.99,VALID,0,VALID,94.8956,VALID,0,VALID,24.3867,VALID,347,VALID,1.57187,
2012-03-15, 03:51:05,VALID,1001,VALID,0,VALID,94.8804,VALID,0,VALID,24.3246,VALID,354,VALID,1.64336,
2012-03-15, 03:52:05,VALID,1001,VALID,0,VALID,94.8804,VALID,0,VALID,24.3265,VALID,359,VALID,1.00625,
2012-03-15, 03:53:05,VALID,1001.01,VALID,0,VALID,94.8346,VALID,0,VALID,24.3459,VALID,346,VALID,1.67969,
2012-03-15, 03:54:05,VALID,1001,VALID,0,VALID,94.8117,VALID,0,VALID,24.3459,VALID,344,VALID,1.31172,
2012-03-15, 03:55:05,VALID,1001,VALID,0,VALID,94.7965,VALID,0,VALID,24.3246,VALID,332,VALID,1.07266,
2012-03-15, 03:56:05,VALID,1000.98,VALID,0,VALID,94.7888,VALID,0,VALID,24.3673,VALID,339,VALID,0.942578,